Location: Az?znagar
(16.8373°N, 80.5091°E)
Time: 17:20:58
(UTC+00:00)

Okean 3 Rocket - Pass Details

Date: 04 December 2021
Orbit: 614 x 646 km, 82.5° (Epoch: 18 January)

Event Time Altitude Azimuth Distance (km) Brightness Sun altitude
Rises 00:07:13 0° 200° (SSW) 2,923 7.0 -11.0°
Reaches altitude 10° 00:09:35 10° 208° (SSW) 2,021 6.1 -10.4°
Maximum altitude 00:13:44 37° 276° (W) 992 4.1 -9.5°
Drops below altitude 10° 00:17:55 10° 344° (NNW) 2,036 5.9 -8.6°
Sets 00:20:19 0° 353° (N) 2,949 6.8 -8.0°
